Current weather by "City, St" or "zip code"  
 
Advertise Here

Current Conditions: Olive Branch, Olive Branch Airport, MS

A Few Clouds


77.0 F

Last Updated on Sep 16 2021, 6:50 pm CDT
Humidity: 79%
Wind Speed: E 5.8 mph
Barometer 29.95 in
Dewpoint: 69.8 F
Visibility: 10.00 mi
Precip: --
Heat Index: NA
Wind Chill: NA
Current conditions at:

Olive Branch, Olive Branch Airport, MS (KOLV)

Lat: 34.97889 Lon: 89.78694

Local Radar Image active severe weather and emergency alerts image image weather storm and storm spotter reports image weather observation monitoring service image
Local
Radar
Active
Alerts
Storm Reports Obs
Monitoring

Sign-up For Email & Text Message Weather Alert Notification Services



Advertise Here

Observation History for Olive Branch, Olive Branch Airport, MS


Time Wind
(mph)
Vis
(mi)
Weather Precip (in) Temperature (F) Relative
Humidity
Wind
Chill
(F)
Heat
Index
(F)
Pressure
Air Dwpt altimeter
(in)
sea level
(mb)
Rmks
6:50 pm CDT E 5.8 10.00 A Few Clouds -- 77.0 69.8 79% NA NA 29.95 M
5:50 pm CDT NE 4.6 10.00 Mostly Cloudy -- 81.0 71.6 74% NA 85 29.95 M
4:50 pm CDT E 4.6 G 11.5 10.00 Mostly Cloudy -- 79.0 71.6 79% NA NA 29.94 M
3:50 pm CDT E 8.1 G 13.8 10.00 Mostly Cloudy -- 81.0 69.8 70% NA 85 29.94 M
2:50 pm CDT E 8.1 G 13.8 10.00 Mostly Cloudy -- 81.0 69.8 70% NA 85 29.95 M
1:50 pm CDT E 9.2 10.00 Mostly Cloudy -- 82.0 69.8 66% NA 86 29.97 M
11:50 am CDT E 6.9 G 13.8 10.00 Mostly Cloudy -- 79.0 69.8 74% NA NA 29.99 M
10:50 am CDT E 10.4 10.00 Mostly Cloudy -- 77.0 69.8 79% NA NA 30.01 M
9:50 am CDT E 5.8 10.00 Mostly Cloudy -- 73.0 69.8 89% NA NA 30.00 M
8:50 am CDT E 5.8 10.00 Overcast -- 72.0 69.8 94% NA NA 30.00 M
7:50 am CDT E 5.8 10.00 Overcast -- 70.0 69.8 100% NA NA 29.99 M
6:50 am CDT E 5.8 6.00 Fog/Mist -- 68.0 68.0 100% NA NA 29.97 M
5:55 am CDT E 4.6 2.00 Fog/Mist -- 68.0 68.0 100% NA NA 29.96 M
4:55 am CDT E 3.5 0.50 Fog -- 68.0 68.0 100% NA NA 29.94 M
3:55 am CDT E 3.5 10.00 Fair -- 70.0 69.8 100% NA NA 29.94 M
2:55 am CDT E 4.6 10.00 Fair -- 70.0 69.8 100% NA NA 29.94 M
1:55 am CDT N 0.0 10.00 Fair -- 70.0 69.8 100% NA NA 29.94 M
12:55 am CDT E 4.6 10.00 NULL -- 72.0 71.6 100% NA NA 29.95 M
11:55 pm CDT E 4.6 10.00 A Few Clouds -- 72.0 71.6 100% NA NA 29.96 M
10:55 pm CDT E 3.5 10.00 Partly Cloudy -- 72.0 71.6 100% NA NA 29.96 M

Regional Weather Observation


West Memphis, West Memphis Municipal Airport, AR (KAWM)

Mostly Cloudy
79.0 F

Millington, Millington Municipal Airport, TN (KNQA)

Fair
73.0 F

Olive Branch, Olive Branch Airport, MS (KOLV)

A Few Clouds
77.0 F

Somerville - Fayette County Airport, TN (KFYE)

NULL
72.0 F

COVINGTON MUNI, TN (KM04)

Fair
72.0 F

Blytheville, Blytheville Municipal Airport, AR (KHKA)

Mostly Cloudy
72.0 F
Advertise Here


Advertise Here